Regional Weather Roundup
Issued by NWS Goodland, KS

Home | Current Version | Previous Version | Text Only | Print | Product List | Glossary On
Versions: 1 2 3 4 5 6 7 8 9 10 11 12 13 14 15 16 17 18 19 20 21 22 23 24 25 26 27 28 29 30 31 32 33 34 35 36 37 38 39 40 41 42 43 44 45 46 47 48 49 50
052
ASUS43 KGLD 172008
RWRGLD

GOODLAND FORECAST AREA HOURLY WEATHER ROUNDUP
NATIONAL WEATHER SERVICE GOODLAND KS
100 PM MST SAT FEB 17 2018

...OFFICIAL OBSERVATIONS...

CITY           SKY/WX    TMP DP  RH WIND       PRES   REMARKS
GOODLAND KS    SUNNY     50  14  23 N20G26    30.08F
HILL CITY KS   SUNNY     55  16  21 NW18G29   30.11F
IMPERIAL NEB   SUNNY     48  18  30 NW14      30.06F
MCCOOK NEB     SUNNY     48  23  37 W16G22    30.08F
AKRON CO       SUNNY     47  13  25 W15G22    30.04F
BURLINGTON CO  SUNNY     51  10  19 N15G30    30.08F
LIMON CO       SUNNY     48   9  20 SW6       30.06F
$$

...UNOFFICIAL OBSERVATIONS...

CITY           SKY/WX    TMP DP  RH WIND       PRES   REMARKS
COLBY KS       SUNNY     50  21  32 N17G24    30.10F
LENORA KS        N/A     47  32  56 NW13        N/A
NORTON KS      SUNNY     52  14  22 NW18      30.09
SHARON SPRINGS   N/A     53  15  22 N12G18      N/A
TRENTON NEB      N/A     47  32  56 NW13        N/A
KIT CARSON CO    N/A     52  15  23 CALM        N/A
$$




USA.gov is the U.S. government's official web portal to all federal, state and local government web resources and services.